Miscellaneous Local Product
Issued by NWS Hastings, NE

Home | Current Version | Previous Version | Text Only | Print | Product List | Glossary Off
Versions: 1 2 3 4 5 6 7 8 9 10 11 12 13 14 15 16 17 18 19 20 21 22 23 24 25 26 27 28 29 30 31 32 33 34 35 36 37 38 39 40 41 42 43 44 45 46 47 48 49 50

909
AXUS43 KGID 211602
MISGRI

GID CWA HOURLY WEATHER ROUNDUP
NATIONAL WEATHER SERVICE HASTINGS NE
1100 AM CDT SAT APR 21 2018

NOTE: "FAIR" INDICATES FEW OR NO CLOUDS BELOW 12,000 FEET WITH NO
SIGNIFICANT WEATHER AND/OR OBSTRUCTIONS TO VISIBILITY.

...SOUTH CENTRAL NEBRASKA...

CITY           SKY/WX    TMP DP  RH WIND       PRES   REMARKS
GRAND ISLAND   CLOUDY    44  37  76 E6        30.27R
KEARNEY        LGT RAIN  42  39  89 E14       30.26R
HASTINGS       CLOUDY    43  37  79 SE6       30.26R
ORD            CLOUDY    43  38  82 NE3       30.27R
YORK             N/A     45  43  93 SE10      30.28R
AURORA         CLOUDY    44  39  85 SE6       30.27R
LEXINGTON      CLOUDY    42  39  88 E12       30.24S
HOLDREGE       DRIZZLE   41  40  97 E14       30.24R
HEBRON         RAIN      45  42  89 E6        30.27R

...NEBRASKA PANHANDLE...

CITY           SKY/WX    TMP DP  RH WIND       PRES   REMARKS
CHADRON        LGT RAIN  40  36  86 S9        30.24R WCI  34
ALLIANCE       FLURRIES  35  35 100 S8        30.22S WCI  29
SCOTTSBLUFF    CLOUDY    37  37 100 SE6       30.23R WCI  32
SIDNEY         CLOUDY    35  33  92 E7        30.21R WCI  29

...WESTERN AND NORTH CENTRAL NEBRASKA...

CITY           SKY/WX    TMP DP  RH WIND       PRES   REMARKS
VALENTINE      CLOUDY    41  38  89 SE9       30.28F
AINSWORTH      CLOUDY    40  39  97 CALM      30.28F
ONEILL         CLOUDY    46  39  76 NE7       30.31R
BROKEN BOW     LGT RAIN  41  38  89 N8        30.26R
IMPERIAL       CLOUDY    40  38  93 NE10      30.22R WCI  33
NORTH PLATTE   CLOUDY    42  39  89 SE10      30.24S
MCCOOK         CLOUDY    41  40  96 E12       30.22R

...EASTERN NEBRASKA...

CITY           SKY/WX    TMP DP  RH WIND       PRES   REMARKS
NORFOLK        CLOUDY    47  32  56 E9        30.28R
SO SIOUX CITY  CLOUDY    45  33  63 E9        30.32F
TEKAMAH        CLOUDY    51  29  42 E7        30.31S
ALBION         CLOUDY    47  34  62 E9        30.28R
OMAHA EPPLEY   CLOUDY    51  29  42 E3        30.29S
OFFUTT AFB     CLOUDY    50  28  41 E6        30.29R
MILLARD        CLOUDY    51  30  44 CALM      30.30R
LINCOLN        CLOUDY    48  38  68 CALM      30.29S
NEBRASKA CITY  CLOUDY    50  33  52 CALM      30.28R
BEATRICE       DRIZZLE   46  43  90 E5        30.28R
FALLS CITY     CLOUDY    49  33  54 CALM      30.27R

...NORTHERN KANSAS...

CITY           SKY/WX    TMP DP  RH WIND       PRES   REMARKS
GOODLAND       LGT RAIN  39  37  92 E7        30.18R WCI  34
HILL CITY      LGT RAIN  43  42  97 E14       30.21R
NORTON         CLOUDY    43  39  87 NE12      30.21R
PHILLIPSBURG   DRIZZLE   45  41  87 NE8       30.23R
SMITH CENTER   DRIZZLE   41  39  93 E10       30.23S
BELOIT         CLOUDY    43  39  87 CALM      30.23R
HAYS           LGT RAIN  44  42  93 E14       30.18R
RUSSELL        LGT RAIN  44  44 100 E12       30.18R FOG
CONCORDIA      LGT RAIN  43  41  93 E10       30.23R
SALINA         LGT RAIN  46  44  93 E12       30.21R
TOPEKA         LGT RAIN  47  42  83 NE9       30.23R



USA.gov is the U.S. government's official web portal to all federal, state and local government web resources and services.